When you browse on this site, cookies collect data to enhance your experience and personalize the content and advertising you see.
Visit our Privacy Policy to learn more. By continuing to use the site, you agree to this use of cookies and data.
  • In United Kingdom
  • List of Countries
  • For 7 days
  • Water Temperature
  • Weather Map
  • Weather Widgets
  • user-avatar
    Login

    Hourly Weather La Paz

    Today, 1 April, Wednesday

    Time Temperature Precipitation Wind Pressure Humidity
    00:00 +6°C° 0 mm 2 mps 474 mmHg 88%
    01:00 +6°C° 0 mm 2 mps 474 mmHg 89%
    02:00 +6°C° 0 mm 1 mps 473 mmHg 90%
    03:00 +6°C° 0 mm 1 mps 473 mmHg 90%
    04:00 +6°C° 0 mm 1 mps 473 mmHg 91%
    05:00 +7°C° 0 mm 1 mps 474 mmHg 88%
    06:00 +7°C° 0 mm 1 mps 475 mmHg 84%
    07:00 +8°C° 0 mm 1 mps 475 mmHg 80%
    08:00 +9°C° 0.1 mm 1 mps 476 mmHg 74%
    09:00 +10°C° 0.1 mm 1 mps 477 mmHg 68%
    10:00 +12°C° 0.1 mm 2 mps 478 mmHg 62%
    11:00 +12°C° 0.1 mm 2 mps 478 mmHg 60%
    12:00 +13°C° 0.1 mm 2 mps 477 mmHg 58%
    13:00 +14°C° 0.1 mm 2 mps 477 mmHg 56%
    14:00 +13°C° 0.1 mm 3 mps 477 mmHg 57%
    15:00 +13°C° 0.1 mm 3 mps 476 mmHg 58%
    16:00 +13°C° 0.1 mm 3 mps 476 mmHg 59%
    17:00 +11°C° 0 mm 3 mps 475 mmHg 66%
    18:00 +9°C° 0 mm 3 mps 475 mmHg 73%
    19:00 +7°C° 0 mm 2 mps 474 mmHg 80%
    20:00 +7°C° 0 mm 2 mps 474 mmHg 80%
    21:00 +6°C° 0 mm 2 mps 474 mmHg 80%
    22:00 +6°C° 0 mm 2 mps 474 mmHg 80%
    23:00 +5°C° 0 mm 2 mps 474 mmHg 81%

    Tomorrow, 2 April, Thursday

    Time Temperature Precipitation Wind Pressure Humidity
    00:00 +5°C° 0 mm 2 mps 474 mmHg 83%
    01:00 +5°C° 0 mm 2 mps 474 mmHg 84%
    02:00 +5°C° 0 mm 2 mps 473 mmHg 85%
    03:00 +4°C° 0 mm 2 mps 473 mmHg 85%
    04:00 +5°C° 0 mm 1 mps 473 mmHg 86%
    05:00 +6°C° 0 mm 1 mps 474 mmHg 83%
    06:00 +7°C° 0 mm 1 mps 475 mmHg 80%
    07:00 +8°C° 0 mm 1 mps 476 mmHg 77%
    08:00 +10°C° 0 mm 1 mps 477 mmHg 69%
    09:00 +12°C° 0 mm 2 mps 478 mmHg 62%
    10:00 +13°C° 0 mm 2 mps 479 mmHg 54%
    11:00 +13°C° 0.2 mm 3 mps 479 mmHg 53%
    12:00 +14°C° 0.2 mm 3 mps 479 mmHg 53%
    13:00 +14°C° 0.2 mm 3 mps 479 mmHg 53%
    14:00 +14°C° 0.2 mm 4 mps 478 mmHg 54%
    15:00 +13°C° 0.2 mm 4 mps 477 mmHg 56%
    16:00 +13°C° 0.2 mm 4 mps 477 mmHg 58%
    17:00 +11°C° 0.1 mm 3 mps 476 mmHg 66%
    18:00 +9°C° 0.1 mm 3 mps 475 mmHg 73%
    19:00 +7°C° 0.1 mm 3 mps 475 mmHg 81%
    20:00 +7°C° 0 mm 3 mps 475 mmHg 82%
    21:00 +5°C° 0 mm 3 mps 475 mmHg 82%
    22:00 +5°C° 0 mm 3 mps 475 mmHg 83%
    23:00 +6°C° 0 mm 2 mps 475 mmHg 84%

    Day after tomorrow, 3 April, Friday

    Time Temperature Precipitation Wind Pressure Humidity
    00:00 +5°C° 0 mm 2 mps 475 mmHg 85%
    01:00 +5°C° 0 mm 2 mps 474 mmHg 87%
    02:00 +5°C° 0.1 mm 2 mps 474 mmHg 88%
    03:00 +6°C° 0.1 mm 1 mps 474 mmHg 89%
    04:00 +6°C° 0.1 mm 1 mps 474 mmHg 91%
    05:00 +6°C° 0.1 mm 1 mps 475 mmHg 88%
    06:00 +7°C° 0.1 mm 1 mps 475 mmHg 86%
    07:00 +7°C° 0.1 mm 0 mps 476 mmHg 84%
    08:00 +9°C° 0.1 mm 1 mps 477 mmHg 79%
    09:00 +10°C° 0.1 mm 1 mps 477 mmHg 74%
    10:00 +12°C° 0.1 mm 1 mps 478 mmHg 69%
    11:00 +12°C° 0.2 mm 1 mps 478 mmHg 66%
    12:00 +13°C° 0.2 mm 1 mps 477 mmHg 64%
    13:00 +14°C° 0.2 mm 2 mps 477 mmHg 61%
    14:00 +14°C° 0.3 mm 2 mps 477 mmHg 62%
    15:00 +14°C° 0.3 mm 2 mps 476 mmHg 62%
    16:00 +13°C° 0.3 mm 2 mps 475 mmHg 62%
    17:00 +12°C° 0.2 mm 2 mps 475 mmHg 70%
    18:00 +10°C° 0.2 mm 2 mps 474 mmHg 78%
    19:00 +8°C° 0.2 mm 2 mps 474 mmHg 85%
    20:00 +8°C° 0 mm 2 mps 474 mmHg 87%
    21:00 +7°C° 0 mm 2 mps 474 mmHg 88%
    22:00 +7°C° 0 mm 2 mps 474 mmHg 90%
    23:00 +6°C° 0 mm 2 mps 473 mmHg 91%

    4 April, Saturday

    Time Temperature Precipitation Wind Pressure Humidity
    00:00 +7°C° 0 mm 1 mps 473 mmHg 91%
    01:00 +7°C° 0 mm 1 mps 473 mmHg 92%
    02:00 +6°C° 0 mm 1 mps 472 mmHg 92%
    03:00 +5°C° 0 mm 0 mps 472 mmHg 93%
    04:00 +4°C° 0 mm 0 mps 471 mmHg 93%
    05:00 +5°C° 0 mm 0 mps 472 mmHg 88%
    06:00 +7°C° 0 mm 1 mps 473 mmHg 84%
    07:00 +8°C° 0 mm 1 mps 474 mmHg 79%
    08:00 +10°C° 0 mm 1 mps 475 mmHg 72%
    09:00 +12°C° 0 mm 2 mps 476 mmHg 66%
    10:00 +14°C° 0 mm 2 mps 477 mmHg 59%
    11:00 +14°C° 0.2 mm 2 mps 477 mmHg 59%
    12:00 +14°C° 0.2 mm 2 mps 476 mmHg 59%
    13:00 +15°C° 0.2 mm 2 mps 476 mmHg 58%
    14:00 +14°C° 0.4 mm 2 mps 475 mmHg 60%
    15:00 +14°C° 0.4 mm 2 mps 475 mmHg 62%
    16:00 +14°C° 0.4 mm 2 mps 474 mmHg 64%
    17:00 +12°C° 0.2 mm 2 mps 474 mmHg 71%
    18:00 +10°C° 0.2 mm 2 mps 473 mmHg 78%
    19:00 +9°C° 0.2 mm 2 mps 473 mmHg 86%
    20:00 +8°C° 0.1 mm 2 mps 473 mmHg 87%
    21:00 +9°C° 0.1 mm 1 mps 473 mmHg 88%
    22:00 +8°C° 0.1 mm 1 mps 473 mmHg 89%
    23:00 +8°C° 0.1 mm 1 mps 473 mmHg 89%

    5 April, Sunday

    Time Temperature Precipitation Wind Pressure Humidity
    00:00 +8°C° 0.1 mm 1 mps 473 mmHg 89%
    01:00 +7°C° 0.1 mm 0 mps 473 mmHg 89%
    02:00 +7°C° 0.1 mm 0 mps 473 mmHg 89%
    03:00 +6°C° 0.1 mm 0 mps 472 mmHg 90%
    04:00 +6°C° 0.1 mm 0 mps 472 mmHg 90%
    05:00 +7°C° 0 mm 0 mps 473 mmHg 87%
    06:00 +7°C° 0 mm 0 mps 474 mmHg 83%
    07:00 +9°C° 0 mm 1 mps 474 mmHg 80%
    08:00 +11°C° 0.3 mm 1 mps 475 mmHg 75%
    09:00 +12°C° 0.3 mm 1 mps 476 mmHg 70%
    10:00 +13°C° 0.3 mm 2 mps 477 mmHg 65%
    11:00 +14°C° 1 mm 2 mps 476 mmHg 64%
    12:00 +14°C° 1 mm 2 mps 476 mmHg 63%
    13:00 +14°C° 1 mm 2 mps 476 mmHg 62%
    14:00 +14°C° 1 mm 2 mps 475 mmHg 63%
    15:00 +14°C° 1 mm 2 mps 475 mmHg 64%
    16:00 +14°C° 1 mm 2 mps 475 mmHg 64%
    17:00 +12°C° 0.4 mm 2 mps 475 mmHg 71%
    18:00 +11°C° 0.4 mm 1 mps 474 mmHg 77%
    19:00 +10°C° 0.4 mm 1 mps 474 mmHg 84%
    20:00 +8°C° 0.1 mm 2 mps 474 mmHg 84%
    21:00 +8°C° 0.1 mm 2 mps 474 mmHg 85%
    22:00 +8°C° 0.1 mm 3 mps 475 mmHg 85%
    23:00 +8°C° 0 mm 2 mps 474 mmHg 83%

    6 April, Monday

    Time Temperature Precipitation Wind Pressure Humidity
    00:00 +8°C° 0 mm 2 mps 474 mmHg 81%
    01:00 +9°C° 0 mm 1 mps 474 mmHg 80%
    02:00 +8°C° 0 mm 1 mps 474 mmHg 81%
    03:00 +8°C° 0 mm 1 mps 474 mmHg 82%
    04:00 +7°C° 0 mm 0 mps 473 mmHg 84%
    05:00 +8°C° 0 mm 1 mps 474 mmHg 82%
    06:00 +9°C° 0 mm 1 mps 475 mmHg 80%
    07:00 +8°C° 0 mm 2 mps 475 mmHg 78%
    08:00 +9°C° 0.1 mm 2 mps 476 mmHg 72%
    09:00 +12°C° 0.1 mm 1 mps 477 mmHg 66%
    10:00 +13°C° 0.1 mm 1 mps 478 mmHg 59%
    11:00 +13°C° 0.6 mm 1 mps 477 mmHg 59%
    12:00 +14°C° 0.6 mm 1 mps 477 mmHg 59%
    13:00 +14°C° 0.6 mm 2 mps 477 mmHg 59%
    14:00 +14°C° 1.4 mm 2 mps 476 mmHg 63%
    15:00 +13°C° 1.4 mm 2 mps 476 mmHg 66%
    16:00 +13°C° 1.4 mm 2 mps 475 mmHg 69%
    17:00 +12°C° 0.3 mm 2 mps 475 mmHg 72%
    18:00 +11°C° 0.3 mm 1 mps 475 mmHg 75%
    19:00 +11°C° 0.3 mm 1 mps 475 mmHg 78%
    20:00 +10°C° 0 mm 1 mps 475 mmHg 81%
    21:00 +8°C° 0 mm 2 mps 475 mmHg 83%
    22:00 +8°C° 0 mm 2 mps 475 mmHg 86%
    23:00 +8°C° 0.1 mm 2 mps 474 mmHg 88%
    Show more